Location: Abyssinia Baptist Church
(32.7840°N, 96.7578°W)
Time: 04:17:20
(UTC+00:00)

H-2A R/B - Pass Details

Date: 29 June 2022
Orbit: 576 x 652 km, 98.5° (Epoch: 17 August)

Event Time Altitude Azimuth Distance (km) Brightness Sun altitude
Rises 02:08:10 0° 22° (NNE) 2,926 5.7 -6.1°
Reaches altitude 10° 02:10:29 10° 31° (NNE) 2,025 4.7 -6.5°
Maximum altitude 02:14:36 38° 99° (E) 984 2.7 -7.2°
Drops below altitude 10° 02:18:45 10° 168° (SSE) 2,042 4.3 -7.9°
Sets 02:21:05 0° 176° (S) 2,953 5.2 -8.3°
